Location: Castelnau
(43.6639°N, 0.8431°W)
Time: 21:23:58
(UTC+00:00)

Cosmos 2074 Rocket - Pass Details

Date: 13 January 2026
Orbit: 966 x 986 km, 82.9° (Epoch: 10 February)

Event Time Altitude Azimuth Distance (km) Brightness Sun altitude
Rises 06:35:49 0° 209° (SSW) 3,680 6.9 -10.5°
Reaches altitude 10° 06:38:30 10° 216° (SW) 2,737 6.2 -10.1°
Maximum altitude 06:44:22 40° 285° (WNW) 1,410 4.4 -9.1°
Drops below altitude 10° 06:50:16 10° 354° (N) 2,751 6.1 -8.1°
Sets 06:52:59 0° 2° (N) 3,701 6.8 -7.6°
